Stations météo

Publicité
Lahr, Allemagne (10805): Température de l'air & dewpoint: 14.10.2018 20:00:00 - 20.10.2018 20:00:00 (CEST)Lahr, Allemagne (10805): Température de l'air 5cm & Température de l'air -5cm: 14.10.2018 20:00:00 - 20.10.2018 20:00:00 (CEST)Lahr, Allemagne (10805): Température de l'air -20cm & Température de l'air -100cm: 14.10.2018 20:00:00 - 20.10.2018 20:00:00 (CEST)Lahr, Allemagne (10805): Vitesse du vent & gusts: 14.10.2018 20:00:00 - 20.10.2018 20:00:00 (CEST)Lahr, Allemagne (10805): Direction du vent: 14.10.2018 20:00:00 - 20.10.2018 20:00:00 (CEST)Lahr, Allemagne (10805): reduced air pressure: 14.10.2018 20:00:00 - 20.10.2018 20:00:00 (CEST)Lahr, Allemagne (10805): visibility: 14.10.2018 20:00:00 - 20.10.2018 20:00:00 (CEST)Lahr, Allemagne (10805): Ensoleillement: 14.10.2018 20:00:00 - 20.10.2018 20:00:00 (CEST)Lahr, Allemagne (10805): Quantités de précipitations: 14.10.2018 20:00:00 - 20.10.2018 20:00:00 (CEST)
Date & Time tt [°C] td [°C] tt 5cm [°C] tt -5cm [°C] tt -20cm [°C] tt -100cm [°C] ff [km/h] ff [knt] fx [km/h] fx [knt] dd ppp [hPa] vv [km] sd [min] rr [mm]
20.10.2018 20:00:00 10,0 9,4 6,3 12,5 14,2 15,9 0 0 5 3 N 1028,6 1,8 0 0,0
20.10.2018 19:00:00 11,9 10,7 7,8 13,7 14,2 15,9 4 2 5 3 NNE 1028,1 2,2 0 0,0
20.10.2018 18:00:00 13,9 10,8 12,2 15,2 14,1 15,9 4 2 6 3 NNE 1028,0 3,6 14 0,0
20.10.2018 17:00:00 14,3 10,7 14,7 15,8 13,9 15,9 4 2 9 5 - 1028,1 5 55 0,0
20.10.2018 16:00:00 13,2 10,3 15,4 15,7 13,6 15,9 6 3 10 5 ENE 1028,6 3,4 35 0,0
20.10.2018 15:00:00 12,0 10,1 13,8 14,7 13,5 16,0 5 3 9 5 ENE 1029,0 2,7 0 0,0
20.10.2018 14:00:00 10,6 9,6 12,7 13,8 13,3 16,0 4 2 9 5 SSE 1029,4 2,1 0 0,0
20.10.2018 13:00:00 10,5 10,3 11,6 13,3 13,2 16,0 3 1 8 4 SSW 1029,9 1,2 0 0,0
20.10.2018 12:00:00 9,9 9,9 11,2 12,7 13,1 16,0 5 3 8 4 - 1029,9 0,2 0 0,0
20.10.2018 11:00:00 9,4 9,4 10,6 12,0 13,1 16,0 2 1 9 5 - 1029,6 0,2 0 0,0
20.10.2018 10:00:00 9,1 9,1 9,8 11,4 13,1 16,0 4 2 8 5 WSW 1029,0 0,2 0 0,0
20.10.2018 09:00:00 9,3 9,3 9,5 11,0 13,1 16,0 5 3 8 4 SW 1028,1 0,1 0 0,0
20.10.2018 08:00:00 8,6 8,6 8,6 10,7 13,1 16,0 5 3 8 5 WSW 1027,5 0,1 0 0,0
20.10.2018 07:00:00 7,7 7,5 7,9 10,4 13,2 16,0 2 1 5 3 N 1027,0 1,6 0 0,0
20.10.2018 06:00:00 7,0 6,9 7,0 9,8 13,4 16,0 5 3 7 4 E 1026,9 1,4 0 0,0
20.10.2018 05:00:00 6,9 6,7 4,6 9,7 13,6 16,0 7 4 10 5 WSW 1025,7 2,1 0 0,0
20.10.2018 04:00:00 6,1 5,8 5,5 9,8 13,8 16,0 2 1 9 5 WNW 1025,7 1,5 0 0,0
20.10.2018 03:00:00 7,0 7,0 5,1 10,1 14,0 16,0 5 3 8 4 S 1025,3 1,9 0 0,0
20.10.2018 02:00:00 7,2 7,0 4,5 10,5 14,2 16,0 0 0 5 3 N 1025,1 0,8 0 0,0
20.10.2018 01:00:00 8,3 8,2 4,6 11,0 14,4 16,0 4 2 8 4 W 1024,9 2,4 0 0,0
20.10.2018 00:00:00 9,0 8,8 5,0 11,5 14,7 16,0 4 2 7 4 S 1024,7 2,2 0 0,0
19.10.2018 23:00:00 9,7 9,2 7,5 12,0 14,9 16,0 6 3 8 4 WSW 1024,5 3,3 0 0,0
19.10.2018 22:00:00 10,9 10,2 8,4 12,5 15,1 16,0 6 3 8 4 SW 1023,8 2,8 0 0,0
19.10.2018 21:00:00 10,9 9,6 7,0 13,3 15,3 16,0 4 2 5 3 WSW 1023,1 3,4 0 0,0
19.10.2018 20:00:00 11,9 9,3 7,8 14,3 15,4 16,0 2 1 9 5 - 1022,4 4,7 0 0,0
19.10.2018 19:00:00 13,8 10,1 9,8 15,7 15,4 16,0 9 5 16 9 N 1021,6 10 0 0,0
19.10.2018 18:00:00 17,2 11,0 16,0 17,4 15,2 16,0 12 7 22 12 N 1021,0 7 58 0,0
19.10.2018 17:00:00 18,5 11,0 18,8 18,5 14,9 16,0 17 9 22 12 NNE 1020,9 8 60 0,0
19.10.2018 16:00:00 18,4 11,2 20,4 18,9 14,6 16,1 12 6 23 13 NNE 1020,8 8 60 0,0
19.10.2018 15:00:00 17,1 10,7 20,2 18,6 14,2 16,1 16 9 22 12 NE 1021,4 7 60 0,0
19.10.2018 14:00:00 15,2 10,7 18,8 17,5 13,9 16,1 13 7 18 10 NNE 1021,9 9 60 0,0
19.10.2018 13:00:00 13,2 9,9 17,0 15,5 13,7 16,1 15 8 22 12 NNE 1022,6 6 35 0,0
19.10.2018 12:00:00 11,5 10,1 13,5 13,8 13,6 16,1 9 5 14 7 NNE 1022,9 3,4 0 0,0
19.10.2018 11:00:00 10,4 10,2 11,6 12,7 13,5 16,1 9 5 15 8 N 1023,2 1,7 0 0,0
19.10.2018 10:00:00 9,8 9,8 10,1 12,1 13,5 16,1 8 4 11 6 N 1023,0 0,5 0 0,0
19.10.2018 09:00:00 10,0 10,0 10,2 11,7 13,6 16,1 8 4 12 6 NNE 1022,4 0,2 0 0,0
19.10.2018 08:00:00 9,8 9,8 9,8 11,4 13,6 16,1 11 6 13 7 N 1021,6 0,6 0 0,0
19.10.2018 07:00:00 10,0 9,9 9,7 11,0 13,7 16,1 6 3 12 6 NE 1021,1 1,4 0 0,0
19.10.2018 06:00:00 8,7 8,7 8,4 10,4 13,9 16,1 6 3 7 4 NE 1021,0 1,1 0 0,0
19.10.2018 05:00:00 6,9 6,9 4,4 10,3 14,1 16,1 4 2 6 4 NE 1021,1 0,2 0 0,0
19.10.2018 04:00:00 8,9 8,9 4,5 10,8 14,3 16,1 3 2 6 4 NE 1021,0 0,1 0 0,0
19.10.2018 03:00:00 10,6 10,2 8,5 11,1 14,5 16,1 7 4 10 5 NNW 1021,0 2,9 0 0,0
19.10.2018 02:00:00 9,9 9,8 6,5 11,6 14,8 16,1 6 3 12 7 NE 1021,1 0,2 0 0,0
19.10.2018 01:00:00 10,5 9,9 7,3 12,1 15,0 16,1 7 4 10 5 N 1021,0 3,2 0 0,0
19.10.2018 00:00:00 11,3 10,3 7,7 12,7 15,2 16,1 10 5 11 6 N 1020,8 4,5 0 0,0
18.10.2018 23:00:00 11,7 10,4 8,3 13,5 15,3 16,1 9 5 11 6 N 1020,8 5 0 0,0
18.10.2018 22:00:00 14,2 11,5 12,3 14,3 15,4 16,1 13 7 22 12 NE 1020,4 8 0 0,0
18.10.2018 21:00:00 16,0 12,0 14,0 14,8 15,6 16,1 15 8 23 13 NE 1019,8 11 0 0,0
18.10.2018 20:00:00 17,2 11,8 15,3 15,6 15,6 16,1 13 7 24 13 NE 1019,1 10 0 0,0
18.10.2018 19:00:00 17,2 11,1 15,0 16,6 15,5 16,2 11 6 24 13 NE 1018,3 20 0 0,0
18.10.2018 18:00:00 19,0 11,3 17,5 18,1 15,3 16,2 18 10 31 17 NNE 1017,7 22 47 0,0
18.10.2018 17:00:00 21,2 11,4 21,2 19,3 15,0 16,2 24 13 34 18 NNE 1017,7 17 60 0,0
18.10.2018 16:00:00 21,5 11,4 22,7 19,8 14,5 16,2 18 10 28 15 N 1017,8 10 60 0,0
18.10.2018 15:00:00 21,0 10,9 23,7 19,5 14,1 16,2 16 8 24 13 NNE 1018,1 14 60 0,0
18.10.2018 14:00:00 19,5 11,0 22,7 18,0 13,7 16,2 16 8 24 13 NNE 1018,9 11 60 0,0
18.10.2018 13:00:00 16,2 10,3 18,7 16,1 13,3 16,2 14 8 19 11 NNE 1019,7 9 60 0,0
18.10.2018 12:00:00 14,6 10,1 17,5 14,2 13,1 16,2 9 5 14 8 N 1020,1 9 60 0,0
18.10.2018 11:00:00 12,3 9,6 14,0 12,0 13,1 16,2 9 5 10 6 N 1020,3 10 60 0,0
18.10.2018 10:00:00 9,7 8,8 10,0 10,3 13,2 16,2 3 2 5 3 ENE 1020,2 6 31 0,0
18.10.2018 09:00:00 6,6 6,6 5,7 9,4 13,4 16,2 3 2 9 5 NNE 1019,9 1,3 0 0,0
18.10.2018 08:00:00 5,6 5,6 3,0 9,4 13,6 16,2 0 0 4 2 N 1019,6 10 0 0,0
18.10.2018 07:00:00 5,8 5,7 3,3 9,8 13,8 16,2 3 2 4 2 E 1019,3 0,4 0 0,0
18.10.2018 06:00:00 6,6 6,4 3,7 10,1 13,9 16,2 3 2 4 2 NNE 1018,9 9 0 0,0
18.10.2018 05:00:00 7,4 7,3 4,3 10,4 14,1 16,2 1 1 3 2 ENE 1018,8 3,4 0 0,0
18.10.2018 04:00:00 8,0 8,0 5,0 10,7 14,3 16,2 2 1 4 2 ENE 1018,7 0,4 0 0,0
18.10.2018 03:00:00 7,6 7,3 5,7 11,1 14,5 16,2 3 2 5 3 NW 1018,8 1,2 0 0,0
18.10.2018 02:00:00 7,2 6,9 6,0 11,5 14,7 16,2 6 4 9 5 ENE 1018,8 3,3 0 0,0
18.10.2018 01:00:00 9,3 8,6 6,4 11,9 14,9 16,2 3 2 5 3 SSE 1018,9 3,6 0 0,0
18.10.2018 00:00:00 10,0 9,2 7,0 12,3 15,2 16,2 3 2 4 2 SSW 1018,9 7 0 0,0
17.10.2018 23:00:00 10,7 10,2 7,1 12,9 15,4 16,2 0 0 4 2 N 1018,7 7 0 0,0
17.10.2018 22:00:00 10,9 10,2 8,2 13,5 15,6 16,2 2 1 4 2 ESE 1018,6 6 0 0,0
17.10.2018 21:00:00 12,1 10,2 8,2 14,3 15,8 16,2 4 2 6 3 WNW 1017,9 11 0 0,0
17.10.2018 20:00:00 13,9 10,8 9,7 15,3 15,8 16,3 2 1 6 4 ESE 1017,4 10 0 0,0
17.10.2018 19:00:00 15,9 11,5 11,7 16,8 15,8 16,3 3 2 7 4 NW 1016,7 16 7 0,0
17.10.2018 18:00:00 19,1 11,7 18,0 18,3 15,6 16,3 8 4 17 9 N 1016,2 10 55 0,0
17.10.2018 17:00:00 19,8 11,2 20,0 19,1 15,3 16,3 14 7 20 11 NNE 1016,5 15 60 0,0
17.10.2018 16:00:00 20,2 11,1 21,7 19,8 14,8 16,3 15 8 23 13 N 1016,7 15 60 0,0
17.10.2018 15:00:00 20,0 9,8 22,7 20,1 14,3 16,3 13 7 21 11 N 1017,1 24 60 0,0
17.10.2018 14:00:00 18,7 9,2 22,7 19,0 13,8 16,3 9 5 16 9 N 1018,0 10 60 0,0
17.10.2018 13:00:00 17,3 8,7 20,2 17,7 13,4 16,3 8 4 11 6 NNW 1018,8 10 60 0,0
17.10.2018 12:00:00 16,2 8,7 22,0 15,2 13,1 16,3 3 2 7 4 WNW 1019,4 16 60 0,0
17.10.2018 11:00:00 13,1 7,7 16,7 11,8 13,1 16,3 5 3 7 4 SW 1019,7 13 60 0,0
17.10.2018 10:00:00 10,0 7,7 9,9 9,9 13,2 16,3 8 4 8 4 SW 1019,9 10 60 0,0
17.10.2018 09:00:00 7,0 6,2 6,7 9,2 13,4 16,3 5 3 9 5 SSW 1020,0 10 33 0,0
17.10.2018 08:00:00 5,9 5,9 3,5 9,1 13,6 16,3 4 2 4 2 S 1019,8 0,4 0 0,0
17.10.2018 07:00:00 5,4 5,3 2,5 9,4 13,8 16,3 0 0 4 2 N 1019,8 0,4 0 0,0
17.10.2018 06:00:00 5,5 5,3 3,2 9,7 14,0 16,3 3 2 7 4 NE 1019,6 3,6 0 0,0
17.10.2018 05:00:00 6,5 5,9 3,6 10,1 14,2 16,3 4 2 10 5 SW 1019,4 9 0 0,0
17.10.2018 04:00:00 7,4 6,7 5,9 10,5 14,4 16,3 9 5 14 8 SW 1019,7 9 0 0,0
17.10.2018 03:00:00 9,8 8,1 6,5 10,7 14,6 16,3 9 5 11 6 SSW 1019,9 15 0 0,0
17.10.2018 02:00:00 7,0 7,0 3,8 11,0 14,9 16,3 4 2 7 4 ENE 1020,1 2,9 0 0,0
17.10.2018 01:00:00 8,2 7,5 5,0 11,4 15,1 16,3 3 2 5 3 SW 1019,8 9 0 0,0
17.10.2018 00:00:00 8,2 7,5 5,6 11,9 15,3 16,3 4 2 4 2 W 1020,0 8 0 0,0
16.10.2018 23:00:00 9,7 9,1 6,0 12,5 15,6 16,3 5 3 6 3 WNW 1019,9 8 0 0,0
16.10.2018 22:00:00 9,9 9,0 7,0 13,2 15,8 16,3 5 3 7 4 NNE 1019,7 10 0 0,0
16.10.2018 21:00:00 10,9 9,8 7,6 14,0 16,0 16,3 2 1 5 3 E 1019,3 8 0 0,0
16.10.2018 20:00:00 12,5 10,5 8,6 15,1 16,2 16,3 3 1 5 3 S 1019,0 9 0 0,0
16.10.2018 19:00:00 14,6 10,7 10,8 16,5 16,2 16,3 0 0 3 2 N 1018,6 15 0 0,0
16.10.2018 18:00:00 17,7 10,6 15,2 17,7 16,1 16,3 2 1 6 4 - 1018,2 10 0 0,0
16.10.2018 17:00:00 18,0 10,7 16,8 19,4 15,8 16,3 5 3 13 7 N 1018,1 10 30 0,0
16.10.2018 16:00:00 19,6 10,3 19,7 20,2 15,4 16,3 9 5 16 9 NNE 1018,0 17 26 0,0
16.10.2018 15:00:00 21,1 8,5 25,5 21,5 14,8 16,3 6 3 14 7 N 1017,9 20 60 0,0
16.10.2018 14:00:00 20,4 9,3 24,9 19,6 14,3 16,3 8 4 16 9 N 1018,1 19 60 0,0
16.10.2018 13:00:00 18,8 9,4 22,7 18,1 13,9 16,3 8 5 13 7 NNE 1018,3 16 60 0,0
16.10.2018 12:00:00 16,7 8,7 20,6 15,4 13,7 16,3 4 2 8 4 NE 1018,8 14 60 0,0
16.10.2018 11:00:00 13,8 7,9 16,8 12,5 13,7 16,3 4 2 9 5 - 1019,1 10 60 0,0
16.10.2018 10:00:00 10,2 7,5 10,9 10,5 13,8 16,3 5 3 9 5 NNE 1019,3 10 60 0,0
16.10.2018 09:00:00 6,8 5,5 6,9 9,5 14,0 16,3 3 2 5 3 ENE 1019,2 9 35 0,0
16.10.2018 08:00:00 5,5 5,3 2,2 9,5 14,2 16,3 2 1 8 5 N 1018,7 10 0 0,0
16.10.2018 07:00:00 5,9 5,6 2,9 9,8 14,4 16,3 2 1 6 3 W 1018,5 6 0 0,0
16.10.2018 06:00:00 6,4 5,7 3,6 10,2 14,7 16,3 5 3 6 3 WSW 1018,1 10 0 0,0
16.10.2018 05:00:00 6,3 6,0 4,6 10,6 14,9 16,3 2 1 6 3 ENE 1017,8 5 0 0,0
16.10.2018 04:00:00 7,1 6,5 4,4 11,1 15,1 16,3 2 1 11 6 ENE 1017,3 8 0 0,0
16.10.2018 03:00:00 8,2 6,9 5,7 11,5 15,4 16,3 5 3 8 5 SSW 1016,9 13 0 0,0
16.10.2018 02:00:00 8,9 7,8 4,7 11,9 15,7 16,3 4 2 10 6 WSW 1016,5 13 0 0,0
16.10.2018 01:00:00 9,5 8,5 7,0 12,5 15,9 16,3 5 3 7 4 WSW 1016,1 13 0 0,0
16.10.2018 00:00:00 9,9 8,8 5,9 13,1 16,2 16,3 4 2 8 4 W 1015,7 12 0 0,0
15.10.2018 23:00:00 10,8 9,1 7,5 13,9 16,4 16,3 3 1 11 6 NNE 1015,6 14 0 0,0
15.10.2018 22:00:00 12,8 10,0 10,7 14,5 16,7 16,3 8 4 9 5 SW 1014,8 18 0 0,0
15.10.2018 21:00:00 13,1 9,7 9,2 15,5 16,9 16,3 4 2 7 4 S 1014,4 22 0 0,0
15.10.2018 20:00:00 16,4 10,6 11,2 16,6 17,0 16,3 4 2 10 6 - 1013,8 10 0 0,0
15.10.2018 19:00:00 16,5 10,1 13,4 18,3 17,0 16,3 9 5 11 6 N 1013,3 32 16 0,0
15.10.2018 18:00:00 20,6 10,5 19,1 20,2 16,8 16,3 11 6 19 11 NNE 1012,6 43 60 0,0
15.10.2018 17:00:00 23,0 10,0 23,2 21,4 16,4 16,3 15 8 23 12 NNE 1012,2 40 60 0,0
15.10.2018 16:00:00 23,3 9,6 25,0 22,1 15,9 16,3 15 8 21 12 N 1012,1 10 60 0,0
15.10.2018 15:00:00 23,4 9,9 26,1 22,0 15,4 16,3 15 8 21 11 NNE 1012,3 30 60 0,0
15.10.2018 14:00:00 22,2 9,5 25,9 20,9 14,9 16,3 9 5 16 9 ENE 1013,0 31 60 0,0
15.10.2018 13:00:00 20,4 8,6 24,1 18,9 14,5 16,3 8 4 14 7 NE 1013,6 38 59 0,0
15.10.2018 12:00:00 17,8 8,3 21,4 16,4 14,2 16,3 8 4 12 7 N 1014,2 10 60 0,0
15.10.2018 11:00:00 15,3 8,0 18,1 13,5 14,2 16,3 6 3 8 5 ENE 1014,5 33 60 0,0
15.10.2018 10:00:00 11,8 8,0 13,4 11,4 14,3 16,3 4 2 5 3 - 1014,8 10 60 0,0
15.10.2018 09:00:00 8,7 6,7 9,2 10,5 14,5 16,3 4 2 5 3 - 1014,6 10 38 0,0
15.10.2018 08:00:00 6,4 5,6 4,1 10,4 14,7 16,3 3 2 5 3 N 1014,4 15 0 0,0
15.10.2018 07:00:00 7,0 6,0 4,6 10,8 15,0 16,3 3 2 6 3 NNW 1013,9 24 0 0,0
15.10.2018 06:00:00 8,1 6,7 4,6 11,1 15,2 16,3 3 2 6 3 W 1013,5 23 0 0,0
15.10.2018 05:00:00 7,3 5,9 5,0 11,5 15,4 16,3 5 3 7 4 N 1013,5 23 0 0,0
15.10.2018 04:00:00 9,0 6,6 5,8 12,0 15,7 16,3 3 1 11 6 SSW 1013,2 31 0 0,0
15.10.2018 03:00:00 9,2 6,8 7,1 12,3 16,0 16,3 8 4 11 6 S 1013,1 27 0 0,0
15.10.2018 02:00:00 9,7 8,6 6,3 12,8 16,2 16,3 3 2 7 4 ESE 1013,0 12 0 0,0
15.10.2018 01:00:00 10,3 9,3 6,9 13,3 16,5 16,3 3 1 6 3 SSE 1012,6 16 0 0,0
15.10.2018 00:00:00 10,4 9,2 7,1 13,9 16,8 16,3 3 2 9 5 N 1012,4 20 0 0,0
14.10.2018 23:00:00 11,0 9,9 8,1 14,7 17,1 16,3 4 2 8 4 W 1011,7 21 0 0,0
14.10.2018 22:00:00 13,3 11,1 9,1 15,5 17,4 16,3 2 1 5 3 WNW 1011,1 31 0 0,0
14.10.2018 21:00:00 13,7 11,3 9,1 16,5 17,6 16,3 4 2 6 3 W 1011,0 38 0 0,0
14.10.2018 20:00:00 15,4 11,2 11,1 17,9 17,7 16,3 3 2 6 4 W 1010,9 54 0 0,0

tt = Température de l'air
td = dewpoint
tt 5cm = Température de l'air 5cm
tt -5cm = Température de l'air -5cm
tt -20cm = Température de l'air -20cm
tt -100cm = Température de l'air -100cm
ff = Vitesse du vent
fx = gusts
dd = Direction du vent
ppp = reduced air pressure
vv = visibility
sd = Ensoleillement
rr = Quantités de précipitations

stations d'obs. à proximité